Location: Wingville
(42.9917°N, 90.4915°W)
Time: 11:42:08
(UTC+00:00)

LO-87 - Pass Details

Date: 02 July 2022
Orbit: 451 x 466 km, 97.4° (Epoch: 11 August)

Event Time Altitude Azimuth Distance (km) Brightness Sun altitude
Exits shadow 05:38:56 54° 344° (NNW) 570 ? -23.7°
Drops below altitude 10° 05:41:42 10° 347° (NNW) 1,623 ? -23.7°
Sets 05:43:46 0° 348° (NNW) 2,507 ? -23.8°
